• In Russia
  • List of Countries
  • For 7 days
  • Water Temperature
  • Satellite Maps
  • Weather Map
  • Weather Widgets
  • user-avatar
    Login

    Hourly Weather Sidi Bu-l-Abbas

    Today, 19 June, Tuesday

    Time Temperature Precipitation Wind Pressure Humidity
    00:00 +26°C° 0 mm 2 mps 722 mmHg 42%
    01:00 +25°C° 0 mm 2 mps 722 mmHg 46%
    02:00 +24°C° 0 mm 2 mps 722 mmHg 50%
    03:00 +23°C° 0 mm 2 mps 722 mmHg 54%
    04:00 +23°C° 0 mm 2 mps 722 mmHg 55%
    05:00 +23°C° 0 mm 2 mps 722 mmHg 57%
    06:00 +23°C° 0 mm 2 mps 722 mmHg 59%
    07:00 +24°C° 0 mm 2 mps 723 mmHg 52%
    08:00 +25°C° 0 mm 3 mps 723 mmHg 46%
    09:00 +27°C° 0 mm 3 mps 723 mmHg 40%
    10:00 +28°C° 0 mm 4 mps 723 mmHg 37%
    11:00 +29°C° 0 mm 5 mps 723 mmHg 34%
    12:00 +30°C° 0 mm 6 mps 723 mmHg 31%
    13:00 +30°C° 0 mm 6 mps 722 mmHg 31%
    14:00 +30°C° 0 mm 6 mps 722 mmHg 31%
    15:00 +30°C° 0 mm 6 mps 722 mmHg 32%
    16:00 +30°C° 0 mm 6 mps 722 mmHg 35%
    17:00 +29°C° 0 mm 5 mps 722 mmHg 39%
    18:00 +28°C° 0 mm 5 mps 722 mmHg 43%
    19:00 +27°C° 0 mm 4 mps 722 mmHg 49%
    20:00 +26°C° 0 mm 3 mps 722 mmHg 55%
    21:00 +24°C° 0 mm 3 mps 722 mmHg 60%
    22:00 +24°C° 0 mm 2 mps 722 mmHg 63%
    23:00 +23°C° 0 mm 2 mps 722 mmHg 67%

    Tomorrow, 20 June, Wednesday

    Time Temperature Precipitation Wind Pressure Humidity
    00:00 +23°C° 0 mm 1 mps 722 mmHg 70%
    01:00 +22°C° 0 mm 1 mps 722 mmHg 72%
    02:00 +22°C° 0 mm 1 mps 721 mmHg 75%
    03:00 +22°C° 0 mm 1 mps 721 mmHg 77%
    04:00 +22°C° 0 mm 1 mps 721 mmHg 75%
    05:00 +22°C° 0 mm 1 mps 721 mmHg 73%
    06:00 +22°C° 0 mm 1 mps 721 mmHg 70%
    07:00 +24°C° 0 mm 1 mps 721 mmHg 63%
    08:00 +26°C° 0 mm 1 mps 722 mmHg 55%
    09:00 +27°C° 0 mm 2 mps 722 mmHg 47%
    10:00 +29°C° 0 mm 2 mps 722 mmHg 43%
    11:00 +30°C° 0 mm 2 mps 722 mmHg 38%
    12:00 +33°C° 0 mm 3 mps 721 mmHg 34%
    13:00 +33°C° 0 mm 4 mps 721 mmHg 33%
    14:00 +34°C° 0 mm 5 mps 721 mmHg 33%
    15:00 +34°C° 0 mm 5 mps 720 mmHg 32%
    16:00 +33°C° 0 mm 5 mps 720 mmHg 35%
    17:00 +32°C° 0 mm 5 mps 720 mmHg 39%
    18:00 +30°C° 0 mm 5 mps 719 mmHg 42%
    19:00 +29°C° 0 mm 5 mps 720 mmHg 45%
    20:00 +28°C° 0 mm 4 mps 720 mmHg 49%
    21:00 +27°C° 0 mm 3 mps 720 mmHg 52%
    22:00 +26°C° 0 mm 3 mps 720 mmHg 54%
    23:00 +26°C° 0 mm 2 mps 720 mmHg 56%

    Day after tomorrow, 21 June, Thursday

    Time Temperature Precipitation Wind Pressure Humidity
    00:00 +25°C° 0 mm 2 mps 720 mmHg 58%
    01:00 +25°C° 0 mm 2 mps 720 mmHg 60%
    02:00 +24°C° 0 mm 2 mps 719 mmHg 63%
    03:00 +24°C° 0 mm 1 mps 719 mmHg 65%
    04:00 +24°C° 0 mm 1 mps 719 mmHg 67%
    05:00 +23°C° 0 mm 1 mps 719 mmHg 68%
    06:00 +23°C° 0 mm 1 mps 719 mmHg 69%
    07:00 +25°C° 0 mm 1 mps 720 mmHg 63%
    08:00 +26°C° 0 mm 2 mps 720 mmHg 56%
    09:00 +27°C° 0 mm 2 mps 720 mmHg 49%
    10:00 +29°C° 0 mm 2 mps 720 mmHg 44%
    11:00 +31°C° 0 mm 3 mps 720 mmHg 40%
    12:00 +33°C° 0 mm 4 mps 720 mmHg 35%
    13:00 +33°C° 0 mm 4 mps 720 mmHg 36%
    14:00 +34°C° 0 mm 5 mps 720 mmHg 36%
    15:00 +34°C° 0 mm 5 mps 719 mmHg 37%
    16:00 +33°C° 0 mm 5 mps 719 mmHg 39%
    17:00 +32°C° 0 mm 5 mps 719 mmHg 42%
    18:00 +30°C° 0 mm 4 mps 719 mmHg 44%
    19:00 +29°C° 0 mm 4 mps 719 mmHg 47%
    20:00 +28°C° 0 mm 3 mps 719 mmHg 51%
    21:00 +27°C° 0 mm 2 mps 720 mmHg 54%
    22:00 +26°C° 0 mm 2 mps 720 mmHg 56%
    23:00 +26°C° 0 mm 2 mps 720 mmHg 58%

    22 June, Friday

    Time Temperature Precipitation Wind Pressure Humidity
    00:00 +26°C° 0 mm 2 mps 719 mmHg 60%
    01:00 +25°C° 0.1 mm 2 mps 719 mmHg 62%
    02:00 +25°C° 0.1 mm 2 mps 719 mmHg 65%
    03:00 +24°C° 0.1 mm 1 mps 719 mmHg 67%
    04:00 +24°C° 0 mm 1 mps 719 mmHg 68%
    05:00 +24°C° 0 mm 1 mps 719 mmHg 68%
    06:00 +24°C° 0 mm 1 mps 719 mmHg 69%
    07:00 +26°C° 0 mm 2 mps 719 mmHg 61%
    08:00 +28°C° 0 mm 2 mps 719 mmHg 53%
    09:00 +29°C° 0 mm 2 mps 720 mmHg 45%
    10:00 +31°C° 0 mm 3 mps 720 mmHg 41%
    11:00 +33°C° 0 mm 3 mps 720 mmHg 37%
    12:00 +35°C° 0 mm 4 mps 719 mmHg 34%
    13:00 +35°C° 0 mm 4 mps 719 mmHg 34%
    14:00 +35°C° 0 mm 4 mps 719 mmHg 35%
    15:00 +35°C° 0 mm 5 mps 718 mmHg 35%
    16:00 +34°C° 0 mm 4 mps 718 mmHg 37%
    17:00 +34°C° 0 mm 4 mps 718 mmHg 38%
    18:00 +33°C° 0 mm 4 mps 718 mmHg 39%
    19:00 +31°C° 0 mm 3 mps 718 mmHg 43%
    20:00 +29°C° 0 mm 3 mps 718 mmHg 48%
    21:00 +28°C° 0 mm 2 mps 719 mmHg 52%
    22:00 +27°C° 0 mm 2 mps 719 mmHg 54%
    23:00 +27°C° 0 mm 2 mps 719 mmHg 56%

    23 June, Saturday

    Time Temperature Precipitation Wind Pressure Humidity
    00:00 +26°C° 0 mm 2 mps 719 mmHg 58%
    01:00 +26°C° 0 mm 1 mps 718 mmHg 60%
    02:00 +25°C° 0 mm 1 mps 718 mmHg 62%
    03:00 +25°C° 0 mm 1 mps 718 mmHg 63%
    04:00 +25°C° 0 mm 1 mps 718 mmHg 63%
    05:00 +25°C° 0 mm 1 mps 718 mmHg 63%
    06:00 +25°C° 0 mm 1 mps 718 mmHg 63%
    07:00 +27°C° 0 mm 1 mps 719 mmHg 54%
    08:00 +30°C° 0 mm 2 mps 719 mmHg 45%
    09:00 +32°C° 0 mm 2 mps 719 mmHg 36%
    10:00 +34°C° 0 mm 3 mps 719 mmHg 33%
    11:00 +36°C° 0 mm 4 mps 719 mmHg 31%
    12:00 +37°C° 0 mm 4 mps 719 mmHg 28%
    13:00 +37°C° 0 mm 5 mps 718 mmHg 29%
    14:00 +37°C° 0 mm 5 mps 718 mmHg 30%
    15:00 +37°C° 0 mm 5 mps 717 mmHg 30%
    16:00 +36°C° 0 mm 5 mps 717 mmHg 35%
    17:00 +35°C° 0 mm 4 mps 717 mmHg 39%
    18:00 +33°C° 0 mm 4 mps 717 mmHg 43%
    19:00 +31°C° 0 mm 3 mps 717 mmHg 50%
    20:00 +29°C° 0 mm 3 mps 717 mmHg 57%
    21:00 +27°C° 0 mm 2 mps 717 mmHg 64%
    22:00 +26°C° 0 mm 2 mps 717 mmHg 67%
    23:00 +26°C° 0 mm 2 mps 717 mmHg 70%

    24 June, Sunday

    Time Temperature Precipitation Wind Pressure Humidity
    00:00 +25°C° 0 mm 2 mps 717 mmHg 73%
    01:00 +25°C° 0 mm 2 mps 717 mmHg 75%
    02:00 +24°C° 0 mm 3 mps 717 mmHg 77%
    03:00 +22°C° 0 mm 3 mps 717 mmHg 80%
    04:00 +22°C° 0 mm 3 mps 717 mmHg 80%
    05:00 +22°C° 0 mm 3 mps 717 mmHg 80%
    06:00 +22°C° 0 mm 3 mps 718 mmHg 81%
    07:00 +23°C° 0 mm 4 mps 718 mmHg 76%
    08:00 +25°C° 0 mm 4 mps 718 mmHg 71%
    09:00 +25°C° 0 mm 5 mps 718 mmHg 67%
    10:00 +26°C° 0 mm 5 mps 719 mmHg 63%
    11:00 +27°C° 0 mm 5 mps 719 mmHg 59%
    12:00 +28°C° 0 mm 6 mps 719 mmHg 55%
    13:00 +28°C° 0 mm 6 mps 718 mmHg 55%
    14:00 +29°C° 0 mm 6 mps 718 mmHg 55%
    15:00 +29°C° 0 mm 6 mps 718 mmHg 54%
    16:00 +28°C° 0 mm 5 mps 718 mmHg 57%
    17:00 +27°C° 0 mm 5 mps 718 mmHg 60%
    18:00 +26°C° 0 mm 5 mps 718 mmHg 63%
    19:00 +25°C° 0 mm 4 mps 719 mmHg 67%
    20:00 +24°C° 0 mm 3 mps 719 mmHg 71%
    21:00 +24°C° 0 mm 2 mps 719 mmHg 74%
    22:00 +23°C° 0 mm 2 mps 719 mmHg 76%
    23:00 +23°C° 0 mm 1 mps 719 mmHg 77%
    Show more